Voltar ao catálogo

KUIPER-00388

AtivoComunicaçõesLEO
NORAD 68922·PAYLOAD·🇺🇸 United States

Lançado Apr 30, 2026 de Guiana Space Centre

Loading…

Próximas Passagens (próximas 24 horas)

TLE

AtualizadoSource: CelesTrak SupGP

Época: Sep 14, 2026, 21:00 UTC

1 68922C 26098D   26257.87546296  .00006692  00000+0  87604-3 0  2578
2 68922  51.9018  26.7160 0000481 107.9170  56.2371 14.79925252    14

Acompanhe KUIPER-00388 em tempo real com AllMySat

Download on the App Store